星链-2640 (STARLINK-2640 )

导读 | 星芒AI

STARLINK-2640 是 SpaceX Starlink 卫星互联网项目中的第 2640 颗卫星,属于低轨卫星通信网络的一部分。该卫星旨在提供全球高速互联网服务,尤其服务于偏远和网络覆盖不足的地区。它采用先进的推进和通信技术,具备自动避撞功能,以确保轨道安全。作为 Starlink 计划的组成部分,STARLINK-2640 有助于提升全球互联网接入的稳定性和速度,推动数字包容性发展。

基本信息
目录编号:
48438
目录名称:
STARLINK-2640
国际标识:
2021-040L
轨道中心:
EARTH
卫星名称:
星链-2640
卫星全名:
星链-2640 (STARLINK-2640 )
卫星状态:
在轨 (已飞行1684 天)
发射日期:
2021-05-09 UTC
国别 :
美国 (US)
星等 :
--
轨道信息
数据来源 国际轨道数据
星历时间: 2025-12-18T04:13:19+0800
15小时前
查看轨道信息
半长轴: 6925.343km
偏心率: 0.0001606
轨道倾角: 53.054°
近地点辐角 94.136°
升交点赤经 189.313°
平近点角 265.981°
近地点: 546.095km
远地点: 548.321km
周期: 95.592分钟
每日圈数: 15.06402
详细信息
固有亮度:
5
最大亮度:
2.5
卫星平台:
Starlink V1.0
覆盖范围:
全球
运营商:
太空探索技术公司
运营商所在国:
美国
制造商(研发单位):
太空探索技术公司
制造商所在国:
美国
使用方式:
暂无
卫星简介
星链(Starlink)计划是由太空探索技术公司(SpaceX)提出的一个巨型低轨卫星互联网星座项目,计划在2019年至2024年间在太空搭建由约1.2万颗卫星组成的“星链”网络,其中1584颗将部署在地球上空550千米处的近地轨道,并从2020年开始工作。该卫星仍在工作。
2D轨道图
3D轨道图
轨道高度分析图
轨道倾角分析图
轨道综合分析图
查看轨道综合分析图